Regional Weather Roundup
Issued by NWS Upton, NY

Current Version | Previous Version | Text Only | Print | Product List | Glossary On
Versions: 1 2 3 4 5 6 7 8 9 10 11 12 13 14 15 16 17 18 19 20 21 22 23 24 25 26 27
000
ASUS41 KOKX 071208
RWROKX

REGIONAL WEATHER ROUNDUP
NATIONAL WEATHER SERVICE NEW YORK NY
700 AM EST WED DEC 07 2016

NOTE: "FAIR" INDICATES FEW OR NO CLOUDS BELOW 12,000 FEET WITH NO
SIGNIFICANT WEATHER AND/OR OBSTRUCTIONS TO VISIBILITY.

NYZ071-072-176-178-NJZ106-104-071300-
NEW YORK CITY METRO AREA

CITY           SKY/WX    TMP DP  RH WIND       PRES   REMARKS
Central Park   CLOUDY    40  37  89 VRB6      29.95S
Wall St Helipt CLOUDY    43  40  89 NE12      29.95R
Bronx Bot Gard NOT AVBL
LaGuardia APRT CLOUDY    41  37  86 NE12      29.94R
Kennedy INTL   CLOUDY    42  38  85 NE10      29.94S
Breezy Point     N/A     39 N/A N/A NE9         N/A  WCI  33
Newark/Liberty CLOUDY    39  37  92 N10       29.94R WCI  32
Teterboro      CLOUDY    39  36  89 N7        29.94R FOG     WCI  34
$$

NYZ177-179-078>081-071300-
LONG ISLAND NEW YORK

CITY           SKY/WX    TMP DP  RH WIND       PRES   REMARKS
Jones Beach      N/A     41 N/A N/A NE12        N/A
Matinecock PT    N/A     41 N/A N/A E16         N/A
Farmingdale    CLOUDY    41  39  93 NE7       29.94R
MacArthur/ISP  CLOUDY    41  39  93 N10       29.93R
Shirley        CLOUDY    40  40 100 VRB6      29.94S
Westhampton    CLOUDY    40  38  93 N12       29.95R WCI  33
Southampton    NOT AVBL
Bridgehampton  NOT AVBL
East Hampton   CLOUDY    39  38  95 NE6       29.93R WCI  35
Montauk          N/A     41  40  96 N9G17     29.94R
$$

NYZ052-065-067-071300-
HUDSON VALLEY

CITY           SKY/WX    TMP DP  RH WIND       PRES   REMARKS
White Plains   MOCLDY    37  34  89 NE7       29.92R WCI  32
Newburgh       CLOUDY    34  34 100 CALM      29.96R FOG
Montgomery     CLOUDY    34  33  96 CALM      29.94S FOG
Poughkeepsie   CLOUDY    33  33 100 CALM      29.96R FOG
Albany         LGT SNOW  33  31  92 CALM      29.96R FOG
$$

NJZ001-105-106-008-010-013-015-019>022-104-071300-
NEW JERSEY

CITY           SKY/WX    TMP DP  RH WIND       PRES   REMARKS
Newark/Liberty CLOUDY    39  37  92 N10       29.94R WCI  32
Teterboro      CLOUDY    39  36  89 N7        29.94R FOG     WCI  34
Caldwell       CLOUDY    38  36  92 N3        29.95R
Somerville     CLOUDY    39  37  92 CALM      29.93R
Linden         CLOUDY    39  37  91 NE5       29.94R
Sussex         CLOUDY    34  34 100 E3        29.94R
Andover          N/A     34  33  96 CALM      29.94R
Trenton        CLOUDY    39  37  92 N7        29.93R WCI  34
Millville      CLOUDY    42  42 100 NW9       29.94R
Atlantic City  CLOUDY    44  43  96 NW7       29.91R FOG
Wrightstown    CLOUDY    40  39  96 NW6       29.91R
Toms River     CLOUDY    43  42  97 N6        29.93R
Belmar         CLOUDY    43  42  97 N6        29.93R
$$

PAZ047>061-062-071-071300-
EASTERN PENNSYLVANIA

CITY           SKY/WX    TMP DP  RH WIND       PRES   REMARKS
Philadelphia   CLOUDY    41  39  93 NW9       29.97R
Allentown      CLOUDY    38  35  89 NW5       29.96R WCI  34
Scranton       CLOUDY    35  34  96 CALM      29.93R FOG
$$

CTZ002-004>006-009-010-012-RIZ004-006-007-MAZ004-011-015-071300-
SOUTHERN NEW ENGLAND
 IN CT

CITY           SKY/WX    TMP DP  RH WIND       PRES   REMARKS
Bradley INTL   DRIZZLE   34  33  96 N3        29.98R FOG
Hartford       CLOUDY    35  34  96 N6        29.98R FOG     WCI  30
Danbury        CLOUDY    34  33  96 CALM      29.95S
Wtrbury/Oxford CLOUDY    34  30  86 E5        29.95R FOG     WCI  30
Bridgeport     NOT AVBL
Meriden        CLOUDY    37  34  89 N3        29.97R FOG
New Haven      CLOUDY    36  35  96 NE10      29.95S WCI  28
Chester        LGT RAIN  36  36 100 N6        29.95R WCI  31
Groton         LGT RAIN  40  39  97 N8        29.95R FOG     WCI  34
Wilimantic     LGT RAIN  37  36  96 N3        29.98R FOG

 IN RI

CITY           SKY/WX    TMP DP  RH WIND       PRES   REMARKS
Providence     LGT RAIN  38  35  89 N8        29.96R FOG     WCI  32
Block Island   LGT RAIN  42  39  89 NE10      29.93R FOG
Westerly       LGT RAIN  38  35  89 N8        29.96R FOG     WCI  32
 IN MA

CITY           SKY/WX    TMP DP  RH WIND       PRES   REMARKS
Boston         LGT RAIN  39  37  92 E10       29.96R WCI  32
Worcester      LGT SNOW  32  31  96 VRB5      29.94R FOG     WCI  27
Westfield      CLOUDY    33  33 100 CALM      29.97R FOG
Provincetown   LGT RAIN  40  37  89 E7        29.93F
Nantucket      LGT RAIN  41  37  86 NE9       29.89F
$$

ANZ330-335-338-340-345-350-353-355-071300-
COASTAL MARINE OBSERVATIONS


STATION/POSITION TIME  SKY/WX   TEMP    WIND        PRES    VSBY  WAVE
                                AIR SEA DIR/SP/G                  HT/PER
                 (UTC)          (F)     (DEG/KT/KT) (MB)    (MI)  (FT/S)
NY HARB ENTRANCE 1050            45 53   40/ 16/ 19 1012.3          7/ 7
20 S FIRE ISLAND 1050            47 54   40/ 16/ 19 1011.9          8/ 8
GREAT SOUTH BAY  1115            42 43                N/A
23 SSW MONTAUK P 1050            45 54   70/ 19/ 23 1011.4          7/ 7
15 E BARNEGAT LI 1130               54                N/A          10/ 8
HUDSON CANYON    1050            51 58              1008.8         10/ 7
KINGS POINT      1142            40 48              1013.5
EXECUTION ROCKS  1145            41      30/ 12/ 14   N/A
CENTRAL LI SOUND 1115            40 50   40/ 14/ 16   N/A           2/ 4
EASTERN LI SOUND NOT AVBL
ROBBINS REEF     1142            40     360/  8/  9 1013.7
$$


>>>>>>>>>>>>>>>>>>>>>>>>>>>> KEY <<<<<<<<<<<<<<<<<<<<<<<<<<<
>                                                          <
>     SKY/WX - Sky Condition/Present Weather               <
>     TMP    - Temperature in Fahrenheit                   <
>     DP     - Dew Point in Fahrenheit                     <
>     RH     - Relative Humidity in Percent                <
>     WIND   - Direction (from) and Speed in MPH           <
>     PRES   - Mean Sea Level Pressure (inches of Hg)      <
>     WCI    - Wind Chill Index                            <
>     VSB    - VISIBILITY IN MILES                         <
>     HX     - HEAT INDEX                                  <
>     TC     - TEMPERATURE IN CELSIUS                      <
>     VRB    - VARIABLE WIND DIRECTION                     <
>                                                          <
>>>>>>>>>>>>>>>>>>>>>>>>>>>> KEY <<<<<<<<<<<<<<<<<<<<<<<<<<<




USA.gov is the U.S. government's official web portal to all federal, state and local government web resources and services.